Flag for U.S.A. Weather past 2 weeks in St. Louis, Missouri, U.S.A.

39 °F


Feels Like: 35 °F
Forecast: 38 / 44 °F
Wind: 6 mph from Northeast

Location: Lambert-St. Louis International Airport

Current Time: Nov 29, 2015 at 6:40:42 AM

Latest Report: Nov 29, 2015 at 5:51 AM

Visibility: 10 mi

Pressure: 30.28 "Hg

Humidity: 79%

Dew point: 33 °F

Location of St. LouisLocation

Historic Weather in St. Louis — Graph


St. Louis temperature yesterday

Maximum temperature yesterday: 40 °F (at 12:51 PM)
Minimum temperature yesterday: 37 °F (at 5:01 AM)
Average temperature yesterday: 39 °F

Past Weeks' High & Low Weather Summary

High71 °F (Nov 14, 1:51 PM)94% (Nov 17, 7:00 AM)30.36 "Hg (Nov 17, 7:00 AM)
Low24 °F (Nov 22, 12:51 AM)19% (Nov 19, 2:51 PM)29.46 "Hg (Nov 18, 1:51 AM)
Average50 °F60%30.13 "Hg
* Reported Nov 14 4:51 AM — Nov 29 4:51 AM, St. Louis, Weather by CustomWeather, © 2015

Note: Actual official high and low records may vary slightly from our data, if they occured in-between our weather recording intervals... More about our weather records


St. Louis weather history for previous 24 hours

Time TempWeatherWind HumidityBarometerVisibility
4:51 AM
Sun, Nov 29
39 °FOvercast.10 mph82%30.27 "Hg9 mi
3:51 AM39 °FOvercast.7 mph82%30.28 "Hg9 mi
2:51 AM39 °FMostly cloudy.10 mph82%30.31 "Hg10 mi
1:51 AM39 °FOvercast.5 mph82%30.32 "Hg10 mi
11:51 PM
Sat, Nov 28
40 °FLight rain. Overcast.8 mph80%30.33 "Hg10 mi
10:51 PM40 °FOvercast.6 mph83%30.32 "Hg10 mi
9:51 PM40 °FOvercast.9 mph83%30.32 "Hg10 mi
8:51 PM40 °FOvercast.9 mph83%30.34 "Hg10 mi
7:51 PM40 °FLight rain. Overcast.8 mph83%30.33 "Hg10 mi
6:51 PM40 °FLight rain. Overcast.8 mph83%30.31 "Hg10 mi
5:51 PM40 °FLight rain. Overcast.8 mph80%30.32 "Hg10 mi
4:51 PM40 °FLight rain. Overcast.8 mph80%30.32 "Hg10 mi
3:51 PM40 °FLow clouds.10 mph80%30.32 "Hg9 mi
2:51 PM40 °FLight rain. Low clouds.10 mph83%30.30 "Hg8 mi
1:51 PM40 °FLight rain. Low clouds.8 mph83%30.32 "Hg9 mi
12:51 PM40 °FLow clouds.12 mph80%30.33 "Hg10 mi
11:51 AM38 °FLow clouds.13 mph83%30.31 "Hg10 mi
10:51 AM38 °FLow clouds.10 mph83%30.32 "Hg8 mi
9:51 AM38 °FLow clouds.8 mph83%30.36 "Hg8 mi
8:51 AM38 °FLow clouds.10 mph83%30.35 "Hg7 mi
7:51 AM38 °FLow clouds.12 mph83%30.35 "Hg6 mi
6:51 AM38 °FLow clouds.12 mph83%30.35 "Hg10 mi
Weather by CustomWeather, © 2015

See weather overviewHow to use our weather pages